Погода в Агуадилье

Пуэрто-Рико     18°28′18″N   67°08′18″W
темп.,
°C
ветер,
м/с
пор.,
м/с
влажн.,
%
обл.,
%
осадки,
мм/ч
давл.,
гПа
погр.,
м
10 мая, пн
пн1023:00+27всв3474100 0.3 1019459
02:00+26всв6882100 0.7 1017419
05:00+26в7981100 0.1 1016507
08:00+26в71080100 0.1 1018558
11:00+27всв8976100 0.1 1018605
14:00+27в5676100 1.6 1016471
17:00+27в7876100 0.5 1016448
20:00+27в81079100 0.5 1018488
11 мая, вт
вт1123:00+26в71174100 0.0 1017470
02:00+26в61173100 0.0 1016505
05:00+26юв3672100 0.0 1016379
08:00+26вюв4673100 0.0 1017457
11:00+27в3574100 0.0 1017393
14:00+27св6777100 0.0 1016513
17:00+27в7979100 0.2 1016413
20:00+27в3581100 0.8 1017261
12 мая, ср
ср1223:00+27в6783100 0.2 1018449
02:00+26в6781100 0.3 1016449
05:00+26в6983100 0.0 1016476
08:00+26в91180100 0.5 1017672
11:00+27всв8973100 0.0 1017583
14:00+27всв91073100 0.0 1016505
17:00+27всв8875100 0.0 1016663
20:00+26всв91081100 0.0 1017687
13 мая, чт
чт1323:00+26в8118397 0.0 1017698
02:00+25в81084100 0.0 1016603
05:00+25в69841 0.0 1016506
08:00+26в67780 0.0 1017491
11:00+28всв55754 0.0 1017329
14:00+27в55734 0.3 1016479
17:00+26св66790 0.0 1015384
20:00+27всв56820 0.1 1015295
14 мая, пт
пт1423:00+26ююв56783 0.1 1016381
02:00+26в78790 0.1 1015386
05:00+25в56790 0.0 1016309
08:00+26в56760 0.1 1017409
11:00+27св34723 0.0 1017347
14:00+27св44770 0.3 1016306
17:00+27св33745 1.8 1015266
20:00+27зюз33760 1.9 1015242